TIME,DELAY(SENSOR),PRES,T(CTD),SAL,OXYGEN,RAWTEMP,T(OPTODE),TCPHASE,FLUOR,BETA(BETA700),BETA(BETA412),BETA(BETA440),CDOM,C(CSC),ED(ED412.40),ED(ED444.00),ED(ED489.70),ED(ED554.30),LU(LU411.80),LU(LU443.40),LU(LU489.60),LU(LU554.10),COMP,TILTX,TILTX(TILTY),CHECK
1368481370,5808,497.4100036621094000,6.5782999992370605,34.1184997558593750,77.3510818481445300,600.7128295898438000,6.5612368583679200,49.2342910766601560,52,105,83,79,78,14689,2147750080,2147422491,2148008283,2147873398,2147629549,2147070171,2148243163,2147199643,1432,4,13,30571
1368481502,5808,486.7200012207031000,6.7121000289916990,34.1120986938476560,82.2208786010742200,596.3397216796875000,6.7024440765380860,48.5957298278808600,52,102,86,80,77,14695,2147748434,2147424484,2148009353,2147875940,2147630025,2147073170,2148244452,2147199040,3200,3,13,24415
1368481645,5805,475.8500061035156000,7.0398001670837400,34.1071014404296900,93.7314529418945300,586.6840820312500000,7.0135822296142580,47.1562309265136700,51,105,88,80,78,14693,2147748150,2147420672,2148005211,2147871552,2147626651,2147076443,2148246765,2147198957,2077,4,13,11614
1368481780,5804,463.6499938964844000,7.3470001220703125,34.1007003784179700,104.7992019653320300,576.3447265625000000,7.3458061218261720,45.8235702514648440,51,104,88,81,75,14688,2147746496,2147423698,2148004781,2147868836,2147625856,2147074614,2148240594,2147199488,1743,4,13,22869
1368481890,5808,452.2799987792969000,7.5810999870300290,34.0862007141113300,113.2288970947265600,569.3222045898438000,7.5709080696105960,44.8594284057617200,52,103,88,80,77,14692,2147746752,2147422235,2148007451,2147872237,2147624914,2147080530,2148236544,2147200082,1815,4,13,20105
1368482003,5810,441.0899963378906000,7.7197999954223630,34.0864982604980500,121.9789962768554700,565.0172729492188000,7.7086830139160160,43.9460182189941400,50,103,86,79,76,14696,2147744338,2147419172,2148003209,2147873654,2147626258,2147082697,2148235693,2147201627,1220,4,13,10968
1368482113,5807,429.7099914550781000,7.8379998207092285,34.0848999023437500,126.8891983032226600,561.0933837890625000,7.8341259956359860,43.4243698120117200,50,103,85,80,75,14694,2147743478,2147422756,2148004544,2147874240,2147622089,2147078884,2148234139,2147200182,1386,4,13,9018
1368482223,5807,418.6300048828125000,8.0384998321533200,34.0814018249511700,135.5041046142578000,555.0562133789062000,8.0268745422363280,42.5493507385253900,51,106,84,79,75,14692,2147743579,2147423268,2148003291,2147871195,2147623707,2147084635,2148234093,2147197760,1431,4,13,64707
1368482333,5809,408.7000122070312500,8.3670997619628900,34.0794982910156250,146.2167053222656200,545.2344970703125000,8.3397979736328120,41.4678001403808600,50,106,89,78,73,14695,2147742692,2147427602,2148003684,2147872128,2147621156,2147092004,2148234944,2147201344,904,4,13,34120
1368482495,5805,398.2900085449219000,8.6224002838134770,34.0802993774414060,155.0879058837890600,536.1871948242188000,8.6273555755615230,40.5932884216308600,50,108,88,80,74,14694,2147742326,2147426404,2148006875,2147871277,2147622208,2147082514,2148229357,2147199369,3288,4,13,23132
1368482681,5811,386.6600036621094000,9.0062999725341800,34.0867004394531250,171.6802978515625000,523.6428222656250000,9.0250015258789060,39.1238899230957000,50,103,86,78,73,14690,2147738797,2147427611,2148007744,2147871003,2147617600,2147092553,2148233508,2147204864,2626,3,13,685
1368482824,5810,375.8399963378906000,9.4924001693725590,34.1010017395019500,184.3150939941406200,509.1893005371094000,9.4816846847534180,37.9925498962402340,50,104,86,80,72,14694,2147738843,2147423881,2148005156,2147870939,2147616841,2147098267,2148226276,2147201069,2445,3,13,56359
1368482981,5808,362.6799926757812500,9.7792997360229500,34.1148986816406250,190.1356964111328000,500.2276000976562500,9.7640886306762700,37.4544792175293000,49,104,86,79,70,14693,2147736283,2147426624,2148005997,2147869750,2147613549,2147100653,2148228763,2147200886,876,4,13,15297
1368483091,5806,351.9899902343750000,9.9266004562377930,34.1194000244140600,195.4299011230468800,495.1831970214844000,9.9228000640869140,37.0289001464843750,48,103,88,79,71,14690,2147736640,2147424420,2148004918,2147871634,2147613321,2147105481,2148223789,2147208283,3143,3,13,16681
1368483201,5807,341.5100097656250000,10.4766998291015620,34.1425018310546900,200.8639984130859400,477.7464904785156000,10.4701004028320310,36.3970603942871100,50,104,86,81,71,14688,2147735332,2147430884,2148014848,2147872064,2147608640,2147105472,2148228626,2147202002,2790,4,13,50238
1368483324,5806,330.0799865722656000,10.7939996719360350,34.1610984802246100,206.3385925292968800,467.3431091308594000,10.7957000732421880,35.8934211730957000,49,102,87,81,70,14691,2147734436,2147431049,2148020242,2147870454,2147610633,2147110756,2148229449,2147202916,2541,3,13,3947
1368483445,5810,319.4899902343750000,11.0707998275756840,34.1688995361328100,208.0422058105468800,458.7575988769531000,11.0639095306396480,35.6515884399414060,49,103,87,80,69,14693,2147734701,2147434523,2148032877,2147871049,2147606482,2147111725,2148233782,2147209234,1680,3,14,15342
1368483580,5808,307.9599914550781000,11.3660001754760740,34.1856994628906250,209.9474029541015600,447.5379028320312500,11.4137496948242190,35.3581199645996100,48,102,89,80,69,14693,2147734134,2147441170,2148044461,2147872237,2147607689,2147123236,2148234395,2147208484,768,4,14,1511
1368483701,5811,297.8699951171875000,11.6234998703002930,34.1883010864257800,212.0276947021484400,438.1939086914062500,11.7045698165893550,35.0874290466308600,49,105,89,79,68,14687,2147730340,2147445833,2148061915,2147872201,2147606957,2147117833,2148244160,2147207204,3424,4,13,38437
1368483844,5810,286.7300109863281000,12.0495004653930660,34.2048988342285160,215.4201965332031200,426.6906127929687500,12.0619497299194340,34.7113418579101560,48,104,86,80,68,14694,2147726637,2147457764,2148088722,2147873161,2147603510,2147129563,2148249545,2147209179,1836,4,14,63656
1368483989,5806,275.8399963378906000,12.8010997772216800,34.2547988891601560,212.8932037353515600,403.3583068847656000,12.7848196029663090,34.4879188537597660,47,102,84,80,68,14692,2147730230,2147472539,2148122459,2147872018,2147601828,2147141778,2148269961,2147209965,1120,3,15,33665
1368484154,5809,264.6000061035156000,13.3411998748779300,34.2943992614746100,216.2209014892578000,385.4009094238281000,13.3394804000854500,34.0229187011718750,49,103,86,80,67,14692,2147730377,2147496045,2148172022,2147870902,2147596946,2147158747,2148290066,2147215104,3338,4,14,39
1368484299,5807,252.7100067138672000,14.0931997299194340,34.3469009399414060,215.5404052734375000,361.4858093261719000,14.0761899948120120,33.6978683471679700,49,102,88,79,67,14685,2147730349,2147532461,2148249618,2147869485,2147597385,2147180068,2148324909,2147216429,3275,4,14,26434
1368484420,5809,242.2299957275390600,15.0431003570556640,34.4305992126464840,213.9658966064453000,330.4093933105469000,15.0306501388549800,33.3215293884277340,49,103,85,78,65,14686,2147735286,2147579894,2148335945,2147871826,2147598747,2147219318,2148364288,2147223533,2731,3,14,50036
1368484544,5809,231.8800048828125000,15.3781003952026370,34.4696998596191400,213.5827941894531200,318.7936096191406000,15.3867197036743160,33.1719818115234400,48,105,86,80,66,14680,2147736402,2147544118,2148239021,2147874825,2147591442,2147203995,2148317522,2147216384,2036,3,15,62189
1368484676,5811,221.7400054931640600,16.1256999969482420,34.5559005737304700,213.3397064208984400,294.1527099609375000,16.1410903930664060,32.8272209167480500,49,103,85,81,66,14679,2147771629,2147774235,2148662253,2147873298,2147602934,2147339145,2148523245,2147237412,514,3,15,45007
1368484852,5808,209.6399993896484400,16.8120994567871100,34.6395988464355500,213.9909973144531200,272.3345947265625000,16.8082008361816400,32.4792709350585940,49,105,89,80,65,14677,2147826898,2147972681,2148966006,2147873910,2147622043,2147467218,2148672036,2147249846,3458,2,14,64537
1368484985,5805,198.5700073242187500,17.1921997070312500,34.6958999633789060,214.8919067382812500,258.7506103515625000,17.2232494354248050,32.2378692626953100,49,106,91,80,65,14671,2147922861,2148214637,2149296429,2147872850,2147660571,2147617782,2148841179,2147262089,2282,3,15,38926
1368485040,5809,193.7100067138672000,17.8514003753662100,34.7779006958007800,213.6336975097656200,235.0090026855468800,17.9483699798584000,31.9737892150878900,50,106,87,79,64,14663,2147824320,2147795821,2148556553,2147873252,2147621842,2147386477,2148491821,2147233334,2249,3,16,44459
1368485095,5806,189.1000061035156200,18.4624996185302730,34.8689002990722660,214.8930969238281200,212.2805023193359400,18.6424808502197270,31.5918006896972660,54,110,88,81,64,14667,2148047597,2148486390,2149659556,2147874212,2147710491,2147801014,2149030427,2147278272,1522,3,15,64163
1368485170,5809,183.1699981689453000,19.1732997894287100,34.9617004394531250,217.4676971435547000,195.1018066406250000,19.1672306060791000,31.2203407287597660,58,111,89,81,63,14652,2148174637,2148751744,2150017545,2147876589,2147764662,2147964022,2149201435,2147291977,1003,2,14,15285
1368485225,5807,179.1100006103515600,19.3533992767334000,34.9894981384277340,217.9190979003906200,189.1726074218750000,19.3484001159667970,31.1162605285644530,61,110,88,81,64,14655,2148290468,2148971154,2150301412,2147880027,2147812169,2148102080,2149342930,2147300992,271,2,14,42822
1368485280,5812,175.1199951171875000,19.6282005310058600,35.0265007019043000,217.9141998291015600,179.7145996093750000,19.6374702453613280,30.9892196655273440,67,110,90,81,63,14653,2148432576,2149231899,2150645083,2147882404,2147871954,2148253394,2149498870,2147316224,2961,3,15,56939
1368485335,5802,171.1999969482422000,19.8374004364013670,35.0513992309570300,218.1123046875000000,173.5594940185547000,19.8256492614746100,30.8960704803466800,67,116,88,80,63,14642,2148603465,2149537837,2151039908,2147885138,2147940699,2148427126,2149682121,2147328868,2766,3,15,14402
1368485401,5805,166.5299987792968800,19.9654006958007800,35.0637016296386700,217.4806060791015600,168.9503021240234400,19.9666099548339840,30.8673191070556640,74,113,85,81,62,14643,2148846637,2149934683,2151513289,2147884187,2148048457,2148651739,2149907702,2147350601,1729,2,15,63164
1368485479,5807,161.4799957275390600,20.3707008361816400,35.1015014648437500,215.8954010009765600,157.2337036132812500,20.3250808715820300,30.7938709259033200,77,121,90,82,63,14630,2148756873,2149531648,2150820562,2147883099,2148010450,2148421440,2149576365,2147328064,974,2,15,55155
1368485556,5808,157.5200042724609400,20.5942993164062500,35.1197013854980500,215.1835021972656200,149.1067047119140600,20.5738697052001950,30.7231292724609380,82,120,85,82,62,14624,2149017453,2149899355,2151243474,2147888274,2148115684,2148615314,2149777216,2147340662,1227,2,16,35112
1368485644,5811,153.4299926757812500,20.7212009429931640,35.1315002441406250,214.9313049316406200,144.7236022949218800,20.7080993652343750,30.6781101226806640,84,123,91,82,62,14625,2148962459,2149624137,2150731830,2147886976,2148101970,2148478162,2149570724,2147327177,1575,2,16,59956
1368485721,5809,149.7500000000000000,20.8003997802734380,35.1377983093261700,214.6224060058593800,141.9983062744140600,20.7915897369384770,30.6581001281738280,85,122,87,82,62,14616,2150577417,2152353161,2154364982,2147910774,2148744548,2149917174,2151173988,2147456987,1464,2,16,52551
1368485811,5809,145.5599975585937500,20.8808994293212900,35.1439018249511700,214.3343048095703000,138.7597045898437500,20.8908195495605470,30.6305007934570300,92,123,89,81,63,14617,2151282633,2153212022,2155303853,2147919817,2149032393,2150361152,2151607067,2147493120,1145,1,16,11561
1368485910,5809,142.0899963378906200,21.4426002502441400,35.1958999633789060,215.3264007568359400,121.8507995605468800,21.4093208312988280,30.3553905487060550,104,124,90,82,62,14583,2152002413,2154097947,2156289819,2147931529,2149311268,2150770550,2152002532,2147529526,306,1,16,19690
1368486053,5811,138.3300018310547000,21.4846000671386720,35.2062988281250000,217.5668945312500000,119.7088012695312500,21.4750595092773440,30.2109794616699220,109,125,88,83,61,14594,2153107090,2155404699,2157676617,2147945234,2149759744,2151384118,2152572086,2147581165,3394,2,16,35874
1368486183,5808,133.6999969482422000,21.6788997650146500,35.2319984436035160,220.6708068847656200,113.4201965332031200,21.6681308746337900,29.9705696105957030,128,127,88,82,62,14550,2155128576,2157799424,2160173970,2147968118,2150526848,2152380288,2153501531,2147667273,702,2,16,39871
1368486271,5808,129.9100036621093800,22.0993003845214840,35.2937011718750000,224.1567993164062500,100.3268966674804700,22.0705108642578120,29.6262798309326170,161,133,89,85,60,14520,2157233353,2160326107,2162666834,2148000018,2151296054,2153279030,2154313810,2147751588,253,2,15,31279
1368486370,5807,125.6800003051757800,22.2908992767334000,35.3036003112793000,229.8681030273437500,94.8770675659179700,22.2381496429443360,29.2781791687011720,162,135,89,84,60,14500,2160022701,2163666715,2165732708,2148036534,2152391021,2154496768,2155379145,2147860763,597,2,15,17861
1368486471,5807,121.7699966430664000,22.4705009460449220,35.3081016540527340,231.7888031005859400,88.9406967163086000,22.4208793640136720,29.1108703613281250,161,132,91,85,59,14497,2163405549,2167692150,2169363117,2148084653,2153768978,2156119012,2156794166,2147998409,1543,2,16,14842
1368486581,5808,118.1900024414062500,22.5799007415771500,35.3280982971191400,234.9438018798828000,84.0600128173828100,22.5712108612060550,28.9006996154785160,122,124,95,84,61,14538,2166474093,2171087186,2172190290,2148135314,2155280576,2157833929,2158146861,2148129910,2042,2,16,36912
1368486724,5808,114.1999969482421900,22.7261009216308600,35.3410987854003900,237.2156066894531200,79.2414627075195300,22.7197093963623050,28.7345905303955080,91,125,91,84,58,14556,2171280402,2176338523,2176841837,2148218523,2157933037,2160997138,2160633974,2148361115,1080,2,16,26348
1368486857,5809,109.7600021362304700,22.8220005035400400,35.3399009704589840,239.0110015869140600,76.1448898315429700,22.8151893615722660,28.6135406494140620,81,124,93,84,59,14539,2179965531,2185635483,2184939099,2148369353,2163156882,2167162121,2165316068,2148781184,3460,2,16,39752
1368486945,5811,105.7900009155273400,22.9610004425048830,35.3697013854980500,240.5829925537109400,71.7139434814453100,22.9518795013427730,28.4866294860839840,76,122,94,84,58,14550,2177710125,2181408521,2179498468,2148331958,2163501851,2166685924,2164083328,2148659913,47,2,15,55444
1368487011,5806,102.7699966430664000,23.0527000427246100,35.3740997314453100,241.9725952148437500,68.5897216796875000,23.0483093261718750,28.3849506378173830,73,123,91,84,59,14548,2190571282,2195790628,2193292918,2148644050,2171255872,2175825499,2171152082,2149301101,3224,2,16,56230
1368487102,5804,98.6600036621093800,23.1928997039794920,35.3796997070312500,243.7369995117187500,64.2127609252929700,23.1834697723388670,28.2516899108886720,69,123,91,85,58,14546,2175386496,2176817664,2173902948,2148327716,2164699666,2166659593,2162797366,2148534646,2650,2,16,9694
1368487157,5811,96.3099975585937500,23.2292003631591800,35.3748016357421900,244.0426025390625000,62.8972702026367200,23.2241096496582030,28.2217903137207030,68,124,92,85,60,14542,2197403858,2201852699,2198292150,2148909622,2178332187,2182763090,2175311067,2149655140,2179,2,16,32642
1368487212,5805,94.0699996948242200,23.2583999633789060,35.3721008300781250,244.0128021240234400,61.8859596252441400,23.2553501129150400,28.2103996276855470,69,125,91,85,57,14542,2202596397,2206748644,2202455040,2149088768,2182958372,2187605376,2178596461,2149940443,1890,2,16,49352
1368487267,5808,91.8499984741211000,23.3066997528076170,35.3647994995117200,243.8224029541015600,60.3894004821777340,23.3015995025634770,28.2003498077392580,67,130,91,86,59,14540,2208267995,2212133997,2207194715,2149294290,2187532132,2192369078,2181861010,2150227913,1437,2,16,29486
1368487322,5811,89.7200012207031200,23.3253002166748050,35.3632011413574200,243.3737945556640600,59.7526016235351560,23.3212795257568360,28.2122192382812500,66,126,89,85,56,14538,2212789549,2216233462,2210754230,2149495469,2191407396,2196187766,2184349430,2150445476,1038,2,16,30900
1368487377,5812,87.6500015258789000,23.3624992370605470,35.3577003479003900,242.8704071044922000,58.4736900329589840,23.3608093261718750,28.2186107635498050,65,123,93,84,57,14540,2218461869,2221462198,2215398902,2149770194,2196101275,2200951625,2187564754,2150746907,1038,1,16,38111
1368487434,5807,85.6299972534179700,23.3882007598876950,35.3586997985839840,242.3845977783203000,57.5241394042968750,23.3901691436767580,28.2283897399902340,64,124,93,86,57,14529,2223018358,2225282413,2218601344,2150062400,2200517156,2205156224,2190284470,2151007424,533,2,16,13017
1368487489,5805,83.8099975585937500,23.4337005615234380,35.3666000366210940,242.6027984619140600,56.1609382629394500,23.4323196411132800,28.2016792297363280,63,125,92,85,54,14534,2224778980,2226506358,2219507748,2150194377,2202505490,2206664466,2190916580,2151057819,408,2,16,45735
1368487544,5810,82.0699996948242200,23.5736999511718750,35.3848991394043000,243.3334960937500000,51.7273292541503900,23.5694694519042970,28.1141109466552730,64,127,90,86,55,14538,2234519314,2236222930,2228261997,2150619574,2211140644,2215571821,2197137234,2151625910,76,1,15,41513
1368487621,5812,80.2799987792968800,23.7469005584716800,35.3922996520996100,245.7877960205078000,46.5237503051757800,23.7305507659912100,27.9416294097900400,63,129,92,85,59,14532,2240318765,2242315072,2234029677,2150989522,2217191990,2220986578,2200468315,2151950628,2955,1,16,32503
1368487766,5807,78.0400009155273400,23.9839000701904300,35.3969993591308600,246.9459991455078000,38.3783111572265600,23.9829597473144530,27.7905006408691400,62,128,93,85,58,14522,2244755273,2246663277,2238198326,2151526180,2223994697,2226425124,2203519168,2152277101,2941,1,16,564
1368487832,5807,75.8600006103515600,24.2329998016357420,35.4011993408203100,246.0552062988281200,32.0908393859863300,24.1780204772949220,27.7518501281738280,63,125,92,86,61,14516,2249799085,2250153883,2239875675,2151793947,2235661568,2236799122,2209632402,2152758692,2436,2,16,1795
1368487887,5807,74.3799972534179700,24.2992992401123050,35.4001007080078100,245.3385009765625000,28.8154697418212900,24.2797107696533200,27.7425403594970700,61,125,91,85,58,14517,2196397458,2193869056,2186962304,2149373869,2192320987,2190410368,2176389156,2149724269,2834,2,17,38487
1368487942,5806,73.0000000000000000,24.3701000213623050,35.4002990722656250,244.8002014160156200,26.8637599945068360,24.3403301239013670,27.7420101165771500,60,125,92,86,58,14522,2184695899,2181584475,2175718500,2148949924,2180688502,2177664923,2167140900,2148958921,2633,2,16,17407
1368488019,5808,71.2500000000000000,24.4871997833251950,35.3991012573242200,243.9376068115234400,22.7687606811523440,24.4675903320312500,27.7294101715087900,62,124,92,85,54,14511,2244957440,2244755949,2234639497,2152143926,2236331291,2234958473,2207289801,2152670582,2671,1,16,57928
1368488098,5809,68.9499969482421900,24.5541000366210940,35.4035987854003900,242.9765014648437500,20.1937294006347660,24.5476608276367200,27.7399406433105470,60,124,92,85,56,14522,2258769097,2258857572,2247854930,2153397659,2250796726,2248268781,2215864914,2153606290,2084,1,16,1182
1368488153,5810,66.4599990844726600,24.6138000488281250,35.4057998657226560,242.3793029785156200,18.1509494781494140,24.6112003326416000,27.7411193847656250,59,124,92,84,58,14517,2278938048,2280363099,2269310884,2155469339,2272082267,2269142848,2230400612,2155107949,1301,2,16,22064
1368488208,5805,63.9099998474121100,24.6361007690429700,35.4059982299804700,241.8152008056640600,17.2014999389648440,24.6407508850097660,27.7542800903320300,58,124,92,84,56,14520,2283217380,2283715136,2272210349,2156549266,2282251254,2277451456,2235265051,2155670582,638,2,16,7703
1368488263,5809,61.4700012207031250,24.6979007720947270,35.4079017639160160,241.5034027099609400,15.5051002502441400,24.6935405731201170,27.7472705841064450,58,123,89,82,53,14509,2290401206,2291249225,2279797101,2157986505,2292065353,2285254747,2239554432,2156217307,604,1,16,42755
1368488318,5804,59.2900009155273440,24.7213993072509770,35.4089012145996100,241.1882934570312500,14.5001802444458000,24.7248191833496100,27.7487602233886720,56,121,90,85,55,14517,2297921014,2298434898,2286116754,2159097417,2305177508,2296749933,2246758171,2157013312,406,1,16,51941
1368488373,5808,57.4000015258789060,24.7301006317138670,35.4094009399414060,241.0191955566406200,14.0950899124145500,24.7374305725097660,27.7513294219970700,57,122,91,83,53,14518,2309916169,2311705051,2299976566,2161641298,2317395328,2307786139,2253604214,2157897773,59,1,16,51375
1368488451,5811,54.6100006103515600,24.8395996093750000,35.4052009582519500,240.2821044921875000,10.6141700744628900,24.8458404541015620,27.7411308288574220,57,120,91,85,53,14510,2323035218,2325681654,2313239040,2164169892,2337851209,2324695442,2263688813,2159288758,3115,1,16,53915
1368488506,5810,52.3499984741210940,24.8700008392334000,35.3963012695312500,239.9022979736328000,9.6347265243530270,24.8763599395751950,27.7461395263671880,56,121,90,84,59,14505,2328290925,2330204059,2317272347,2166155675,2355254857,2339610157,2272654528,2160299227,3257,1,17,37020
1368488561,5809,50.0099983215332000,24.8973007202148440,35.3843002319335940,239.7151031494140600,8.6685600280761720,24.9064693450927730,27.7424907684326170,55,124,89,84,58,14510,2338486372,2339953856,2326908278,2169449865,2371374208,2352819894,2280407122,2161721426,170,1,17,9368
1368488616,5808,47.5800018310546900,24.9419002532959000,35.3779983520507800,239.5758972167968800,7.2940530776977540,24.9493103027343750,27.7318496704101560,55,120,92,83,56,14516,2352084059,2354200027,2341453238,2173694637,2390531739,2369374016,2290028955,2163151853,482,2,16,48700
1368488671,5809,45.1199989318847660,25.5604991912841800,35.2731018066406250,236.9862976074218800,-8.1133871078491210,25.4302997589111330,27.6583900451660160,56,122,92,85,54,14485,2357099593,2358857609,2345806454,2176959826,2410060882,2386344256,2300762102,2164560420,195,1,16,24522
1368488726,5808,44.1300010681152340,25.5926990509033200,35.2779998779296900,236.4727935791015600,-12.8972101211547850,25.5799293518066400,27.6226406097412100,55,120,91,85,56,14486,2364827757,2367621641,2355447003,2178852160,2412172918,2388121673,2301597211,2165180196,885,2,16,24674
1368488903,5808,42.1800003051757800,25.6893005371093750,35.2667999267578100,235.1782073974609400,-16.6788806915283200,25.6983108520507800,27.6347599029541000,53,118,90,85,54,14510,2365170724,2368641782,2358235968,2182477851,2406854793,2381467904,2297025353,2165698806,3505,1,16,25299
1368488980,5808,39.9900016784668000,25.6926994323730470,35.2671012878418000,235.0095977783203000,-16.9949703216552730,25.7082099914550780,27.6384391784667970,53,116,91,85,57,14519,2378996388,2381661220,2369125293,2188168054,2446408109,2416677824,2318549284,2168604288,2610,1,16,20566
1368489046,5807,37.7299995422363300,25.6986007690429700,35.2659988403320300,234.8943939208984400,-17.1874294281005860,25.7142391204834000,27.6414508819580080,52,117,90,83,58,14518,2392054610,2395891264,2384514852,2194513152,2472027995,2439672822,2332856310,2171080219,2382,1,16,32358
1368489123,5807,34.4099998474121100,25.7029991149902340,35.2654991149902340,234.8479003906250000,-17.1510391235351560,25.7131004333496100,27.6440391540527340,52,116,94,84,55,14525,2415962816,2421401426,2413020598,2210921600,2507754916,2470850029,2351585389,2176403913,2353,1,16,5962
1368489178,5808,31.3600006103515620,25.7049999237060550,35.2653007507324200,234.9871978759765600,-17.2641391754150400,25.7166404724121100,27.6363105773925780,52,117,92,84,51,14528,2428498898,2432862838,2424665389,2219667190,2537031808,2494994468,2365614345,2179192923,2535,2,16,46115